Total_Precipitation_Accumulation
2.51 2.79 2.93 3.16 3.49 3.81 4.11 4.44 4.94 5.26 5.18 5.22 5.10 4.91 4.58 4.36 3.95 3.50 3.15 3.10 3.12 3.38 3.92 3.61 4.02 3.93 4.13 4.25 4.21 4.58 4.72 4.34 4.34 4.26 3.76 3.00 2.54 2.50 2.49 2.55 2.76 2.79 2.93
2.31 2.58 2.60 2.84 3.08 3.62 4.15 4.51 4.55 4.56 4.47 4.71 5.09 5.29 5.21 4.66 4.02 3.63 3.50 3.11 3.05 3.23 3.47 3.79 3.70 3.75 3.97 3.97 4.01 4.37 4.37 3.92 4.05 4.29 4.34 3.55 3.18 2.63 2.05 2.38 2.53 2.66 3.08
1.87 2.18 2.21 2.30 2.53 3.06 3.60 3.76 3.66 3.64 3.56 3.70 4.10 4.40 4.70 4.46 4.15 3.83 3.57 3.15 3.02 3.05 3.23 3.50 3.51 3.57 3.40 3.64 3.87 3.84 3.90 3.83 3.77 3.81 4.27 3.95 3.50 2.94 2.34 2.18 2.30 2.68 2.99
1.72 1.87 1.93 1.98 2.05 2.21 2.45 2.67 2.90 3.05 3.08 3.12 3.32 3.56 3.86 3.94 3.93 3.88 3.54 3.15 2.85 2.83 2.99 3.10 3.10 3.15 3.07 3.36 3.08 3.17 3.52 3.78 3.64 3.54 3.48 3.56 3.69 3.56 2.88 2.36 2.24 2.55 2.71
1.48 1.62 1.73 1.75 1.80 1.95 2.20 2.42 2.73 2.92 2.99 2.95 3.02 3.25 3.59 3.65 3.48 3.37 3.43 3.21 2.91 2.64 2.58 2.78 2.87 2.86 2.77 2.87 2.92 3.26 3.22 3.37 3.39 3.41 3.40 3.52 3.56 3.38 3.20 2.80 2.66 2.59 2.30
1.28 1.49 1.59 1.66 1.74 1.82 2.05 2.29 2.53 2.55 2.66 2.72 2.72 2.78 3.00 3.16 3.04 2.90 2.92 2.78 2.65 2.54 2.44 2.51 2.70 2.61 2.59 2.70 2.82 2.95 2.95 3.04 3.15 3.15 3.16 3.45 3.36 3.26 3.37 3.01 2.82 2.71 2.35
1.13 1.29 1.46 1.50 1.65 1.76 1.88 2.03 2.17 2.29 2.32 2.37 2.30 2.26 2.35 2.51 2.52 2.42 2.47 2.39 2.19 2.09 2.18 2.33 2.44 2.39 2.41 2.47 2.65 2.71 2.83 2.98 3.01 2.92 2.93 3.00 3.03 3.18 3.36 3.44 3.06 2.79 2.40
0.85 0.97 1.15 1.28 1.40 1.56 1.65 1.77 1.90 2.07 2.17 2.21 2.22 2.19 2.15 2.21 2.30 2.40 2.24 2.19 1.94 1.81 1.89 2.02 2.06 2.14 2.24 2.24 2.65 2.63 2.73 2.90 2.81 2.62 3.01 2.89 2.67 2.92 3.14 3.45 3.66 3.31 2.80
0.89 0.89 1.01 1.12 1.15 1.26 1.38 1.51 1.65 1.84 2.04 2.03 2.17 2.14 1.97 2.04 2.21 2.32 2.22 2.11 2.09 1.96 1.98 1.95 2.01 2.13 2.33 2.52 2.81 2.79 2.81 2.92 2.78 2.80 2.98 2.82 2.62 2.67 2.76 3.24 3.65 3.82 3.38
0.83 0.84 0.87 0.90 0.89 1.03 1.34 1.46 1.60 1.78 1.90 1.87 1.79 1.69 1.74 1.89 2.03 2.02 1.96 2.08 2.16 2.17 2.17 2.15 2.16 2.13 2.22 2.46 2.72 2.74 2.76 2.88 2.88 2.91 3.03 3.01 2.77 2.81 2.84 3.17 3.55 3.80 3.91
0.84 0.86 0.94 0.94 0.93 1.04 1.30 1.31 1.37 1.57 1.68 1.66 1.52 1.50 1.56 1.65 1.72 1.74 1.74 1.89 1.97 2.05 2.01 1.99 2.02 2.04 2.13 2.33 2.41 2.34 2.43 2.47 2.66 2.59 2.72 2.86 3.02 3.00 3.03 3.26 3.43 3.68 3.97
0.79 0.81 0.87 1.00 1.14 1.26 1.22 1.12 1.16 1.21 1.34 1.37 1.36 1.39 1.43 1.41 1.39 1.44 1.55 1.64 1.69 1.74 1.66 1.73 1.80 1.81 1.86 2.00 1.94 1.91 2.08 2.26 2.45 2.61 2.76 2.65 2.84 2.90 2.91 3.12 3.34 3.58 3.86
0.82 0.84 0.90 0.94 0.99 1.14 1.28 1.10 1.07 1.14 1.25 1.31 1.37 1.46 1.50 1.43 1.38 1.43 1.47 1.46 1.40 1.42 1.42 1.52 1.60 1.59 1.67 1.68 1.66 1.77 1.90 2.05 2.24 2.44 2.47 2.41 2.60 2.59 2.76 2.86 3.01 3.25 3.52
0.74 0.77 0.90 1.05 1.07 1.07 1.14 1.05 1.02 1.10 1.24 1.46 1.69 1.72 1.65 1.59 1.52 1.42 1.41 1.39 1.32 1.39 1.42 1.52 1.60 1.58 1.65 1.70 1.85 1.97 2.04 2.11 2.10 2.08 2.06 2.06 2.16 2.30 2.61 2.70 2.78 2.95 3.20
0.82 0.73 0.83 1.02 1.13 1.15 1.15 1.09 1.12 1.18 1.33 1.59 1.75 1.83 1.87 1.80 1.72 1.57 1.44 1.40 1.41 1.38 1.42 1.55 1.66 1.72 1.69 1.60 1.84 2.00 1.95 2.02 2.00 1.90 1.74 1.67 1.77 1.93 2.14 2.05 2.31 2.56 2.75
0.92 0.84 0.84 0.90 1.06 1.16 1.22 1.25 1.33 1.39 1.45 1.48 1.54 1.69 1.80 1.81 1.74 1.55 1.45 1.49 1.49 1.46 1.44 1.45 1.56 1.53 1.29 1.43 1.67 1.82 1.85 1.95 1.97 1.85 1.73 1.60 1.60 1.65 1.73 1.75 1.85 2.08 2.28
0.88 0.83 0.86 0.91 0.97 1.00 1.10 1.36 1.38 1.36 1.38 1.45 1.55 1.70 1.74 1.71 1.64 1.49 1.47 1.50 1.48 1.51 1.54 1.50 1.52 1.49 1.43 1.53 1.58 1.60 1.72 1.89 1.90 1.93 1.93 1.63 1.34 1.50 1.47 1.55 1.57 1.64 1.80
0.74 0.76 0.84 0.92 0.93 0.91 0.92 1.04 1.19 1.31 1.38 1.43 1.50 1.60 1.62 1.68 1.73 1.66 1.57 1.60 1.62 1.55 1.56 1.57 1.56 1.62 1.58 1.62 1.53 1.59 1.57 1.69 1.78 1.82 1.79 1.72 1.60 1.51 1.50 1.53 1.51 1.38 1.47
0.71 0.82 0.94 0.92 0.91 0.90 0.92 1.03 1.17 1.31 1.46 1.51 1.55 1.55 1.64 1.78 1.81 1.69 1.65 1.70 1.69 1.58 1.55 1.55 1.54 1.55 1.63 1.71 1.62 1.63 1.57 1.69 1.70 1.67 1.60 1.56 1.56 1.62 1.50 1.54 1.51 1.41 1.38
0.81 0.78 0.77 0.78 0.82 0.94 1.03 1.09 1.26 1.48 1.58 1.59 1.68 1.74 1.78 1.89 1.99 2.00 1.93 1.86 1.83 1.76 1.73 1.66 1.65 1.63 1.68 1.70 1.51 1.48 1.39 1.49 1.55 1.61 1.50 1.39 1.34 1.41 1.39 1.48 1.58 1.46 1.39
0.86 0.86 0.89 0.90 0.95 0.98 1.14 1.35 1.47 1.56 1.63 1.68 1.72 1.90 1.99 2.09 2.25 2.41 2.31 2.24 2.17 2.14 2.09 2.01 1.93 1.89 1.90 1.82 1.52 1.40 1.32 1.46 1.59 1.55 1.41 1.33 1.28 1.23 1.22 1.27 1.37 1.43 1.53
0.87 0.98 1.11 1.15 1.08 1.06 1.18 1.36 1.49 1.57 1.74 1.78 1.86 1.91 2.05 2.13 2.27 2.63 2.63 2.66 2.66 2.48 2.39 2.30 2.19 2.14 2.10 1.90 1.62 1.50 1.52 1.57 1.63 1.62 1.56 1.51 1.36 1.24 1.19 1.14 1.20 1.34 1.38
0.89 0.98 1.14 1.23 1.24 1.30 1.43 1.62 1.68 1.76 1.84 1.98 2.10 2.16 2.23 2.39 2.48 2.64 2.70 2.75 2.73 2.58 2.44 2.33 2.14 2.14 2.11 2.01 1.71 1.55 1.56 1.62 1.62 1.64 1.65 1.53 1.39 1.31 1.27 1.30 1.38 1.37 1.35
0.94 1.06 1.18 1.39 1.51 1.58 1.71 1.85 1.96 2.05 2.16 2.29 2.37 2.40 2.43 2.45 2.50 2.67 2.70 2.72 2.68 2.55 2.46 2.39 2.23 2.21 2.27 2.17 2.01 1.84 1.78 1.81 1.76 1.71 1.71 1.58 1.45 1.35 1.31 1.31 1.29 1.28 1.37
1.13 1.22 1.39 1.56 1.61 1.72 1.81 1.93 2.13 2.32 2.40 2.41 2.41 2.38 2.39 2.50 2.59 2.58 2.57 2.63 2.67 2.67 2.65 2.60 2.58 2.52 2.48 2.38 2.29 2.16 2.09 2.15 2.19 2.11 2.00 1.90 1.74 1.57 1.51 1.46 1.45 1.49 1.55
1.27 1.40 1.53 1.68 1.77 1.92 2.04 2.14 2.30 2.51 2.68 2.62 2.54 2.54 2.58 2.61 2.59 2.56 2.50 2.54 2.47 2.43 2.40 2.44 2.51 2.43 2.45 2.43 2.23 2.13 2.11 2.16 2.22 2.09 1.99 2.06 2.04 1.92 1.86 1.79 1.74 1.72 1.69